Meteo pe oră la Abizanda

Astăzi, 3 August, Marţi

Timp Temperatura Precipitaţii Vânt Presiune Umiditate
00:00 +18°C° 0 mm 1 m/s 710 mmHg 78%
01:00 +18°C° 0 mm 1 m/s 709 mmHg 78%
02:00 +18°C° 0 mm 1 m/s 709 mmHg 78%
03:00 +16°C° 0 mm 1 m/s 709 mmHg 79%
04:00 +18°C° 0 mm 1 m/s 709 mmHg 76%
05:00 +18°C° 0 mm 1 m/s 709 mmHg 74%
06:00 +19°C° 0 mm 1 m/s 710 mmHg 72%
07:00 +21°C° 0 mm 1 m/s 710 mmHg 66%
08:00 +22°C° 0 mm 1 m/s 710 mmHg 60%
09:00 +24°C° 0 mm 1 m/s 710 mmHg 54%
10:00 +26°C° 0 mm 2 m/s 710 mmHg 49%
11:00 +27°C° 0 mm 2 m/s 710 mmHg 44%
12:00 +29°C° 0 mm 3 m/s 710 mmHg 39%
13:00 +29°C° 0 mm 3 m/s 709 mmHg 36%
14:00 +30°C° 0 mm 3 m/s 708 mmHg 33%
15:00 +30°C° 0 mm 4 m/s 708 mmHg 30%
16:00 +30°C° 0 mm 3 m/s 707 mmHg 31%
17:00 +29°C° 0 mm 2 m/s 707 mmHg 31%
18:00 +29°C° 0 mm 2 m/s 707 mmHg 32%
19:00 +27°C° 0 mm 1 m/s 707 mmHg 40%
20:00 +25°C° 0 mm 1 m/s 707 mmHg 48%
21:00 +23°C° 0 mm 1 m/s 707 mmHg 57%
22:00 +23°C° 0.1 mm 1 m/s 707 mmHg 59%
23:00 +22°C° 0.1 mm 1 m/s 707 mmHg 61%

Mâine, 4 August, Miercuri

Timp Temperatura Precipitaţii Vânt Presiune Umiditate
00:00 +22°C° 0.1 mm 1 m/s 707 mmHg 64%
01:00 +22°C° 0.2 mm 1 m/s 707 mmHg 67%
02:00 +21°C° 0.2 mm 1 m/s 707 mmHg 69%
03:00 +21°C° 0.2 mm 1 m/s 707 mmHg 72%
04:00 +21°C° 0.3 mm 1 m/s 707 mmHg 74%
05:00 +20°C° 0.3 mm 1 m/s 707 mmHg 77%
06:00 +20°C° 0.3 mm 1 m/s 707 mmHg 79%
07:00 +21°C° 0.1 mm 1 m/s 707 mmHg 73%
08:00 +22°C° 0.1 mm 1 m/s 708 mmHg 67%
09:00 +23°C° 0.1 mm 2 m/s 708 mmHg 61%
10:00 +25°C° 0.7 mm 2 m/s 708 mmHg 55%
11:00 +26°C° 0.7 mm 2 m/s 708 mmHg 50%
12:00 +28°C° 0.7 mm 2 m/s 708 mmHg 44%
13:00 +28°C° 0.2 mm 3 m/s 708 mmHg 40%
14:00 +29°C° 0.2 mm 4 m/s 707 mmHg 35%
15:00 +30°C° 0.2 mm 4 m/s 707 mmHg 30%
16:00 +29°C° 0 mm 4 m/s 707 mmHg 33%
17:00 +28°C° 0 mm 4 m/s 707 mmHg 35%
18:00 +27°C° 0 mm 4 m/s 708 mmHg 38%
19:00 +25°C° 0 mm 4 m/s 708 mmHg 45%
20:00 +22°C° 0 mm 3 m/s 708 mmHg 52%
21:00 +20°C° 0 mm 2 m/s 709 mmHg 59%
22:00 +19°C° 0 mm 2 m/s 709 mmHg 63%
23:00 +18°C° 0 mm 2 m/s 709 mmHg 67%

Poimâine, 5 August, Joi

Timp Temperatura Precipitaţii Vânt Presiune Umiditate
00:00 +17°C° 0 mm 2 m/s 709 mmHg 71%
01:00 +18°C° 0 mm 1 m/s 709 mmHg 73%
02:00 +18°C° 0 mm 1 m/s 709 mmHg 76%
03:00 +18°C° 0 mm 1 m/s 708 mmHg 78%
04:00 +18°C° 0 mm 1 m/s 708 mmHg 76%
05:00 +18°C° 0 mm 1 m/s 709 mmHg 74%
06:00 +19°C° 0 mm 1 m/s 709 mmHg 72%
07:00 +21°C° 0 mm 1 m/s 709 mmHg 63%
08:00 +23°C° 0 mm 1 m/s 709 mmHg 54%
09:00 +25°C° 0 mm 1 m/s 709 mmHg 45%
10:00 +27°C° 0 mm 2 m/s 709 mmHg 39%
11:00 +29°C° 0 mm 2 m/s 709 mmHg 33%
12:00 +31°C° 0 mm 3 m/s 708 mmHg 27%
13:00 +31°C° 0 mm 3 m/s 708 mmHg 26%
14:00 +33°C° 0 mm 4 m/s 707 mmHg 24%
15:00 +34°C° 0 mm 4 m/s 707 mmHg 22%
16:00 +33°C° 0 mm 3 m/s 707 mmHg 24%
17:00 +33°C° 0 mm 3 m/s 706 mmHg 26%
18:00 +31°C° 0 mm 2 m/s 706 mmHg 28%
19:00 +28°C° 0 mm 2 m/s 706 mmHg 35%
20:00 +26°C° 0 mm 2 m/s 706 mmHg 42%
21:00 +23°C° 0 mm 2 m/s 706 mmHg 49%
22:00 +23°C° 0 mm 1 m/s 706 mmHg 54%
23:00 +22°C° 0 mm 1 m/s 706 mmHg 59%

6 August, Vineri

Timp Temperatura Precipitaţii Vânt Presiune Umiditate
00:00 +21°C° 0 mm 1 m/s 706 mmHg 64%
01:00 +21°C° 0 mm 1 m/s 706 mmHg 66%
02:00 +21°C° 0 mm 1 m/s 706 mmHg 68%
03:00 +20°C° 0 mm 1 m/s 706 mmHg 71%
04:00 +20°C° 0 mm 1 m/s 706 mmHg 71%
05:00 +19°C° 0 mm 0 m/s 706 mmHg 72%
06:00 +19°C° 0 mm 0 m/s 706 mmHg 72%
07:00 +23°C° 0 mm 1 m/s 706 mmHg 68%
08:00 +24°C° 0 mm 2 m/s 707 mmHg 64%
09:00 +26°C° 0 mm 2 m/s 707 mmHg 60%
10:00 +27°C° 0 mm 3 m/s 707 mmHg 54%
11:00 +29°C° 0 mm 3 m/s 706 mmHg 48%
12:00 +30°C° 0 mm 4 m/s 706 mmHg 42%
13:00 +32°C° 0 mm 4 m/s 706 mmHg 39%
14:00 +32°C° 0 mm 4 m/s 705 mmHg 35%
15:00 +33°C° 0 mm 4 m/s 705 mmHg 31%
16:00 +32°C° 0 mm 4 m/s 704 mmHg 37%
17:00 +30°C° 0 mm 4 m/s 704 mmHg 43%
18:00 +29°C° 0 mm 4 m/s 704 mmHg 49%
19:00 +27°C° 0 mm 3 m/s 704 mmHg 60%
20:00 +24°C° 0 mm 2 m/s 704 mmHg 72%
21:00 +22°C° 0 mm 1 m/s 704 mmHg 83%
22:00 +22°C° 0 mm 1 m/s 704 mmHg 85%
23:00 +21°C° 0 mm 1 m/s 704 mmHg 87%

7 August, Sâmbătă

Timp Temperatura Precipitaţii Vânt Presiune Umiditate
00:00 +21°C° 0 mm 1 m/s 703 mmHg 88%
01:00 +21°C° 0 mm 1 m/s 703 mmHg 89%
02:00 +20°C° 0 mm 1 m/s 703 mmHg 90%
03:00 +20°C° 0 mm 1 m/s 703 mmHg 91%
04:00 +20°C° 0 mm 1 m/s 703 mmHg 89%
05:00 +19°C° 0 mm 0 m/s 703 mmHg 87%
06:00 +19°C° 0 mm 0 m/s 703 mmHg 85%
07:00 +22°C° 0 mm 1 m/s 704 mmHg 80%
08:00 +23°C° 0 mm 1 m/s 704 mmHg 76%
09:00 +24°C° 0 mm 1 m/s 704 mmHg 71%
10:00 +26°C° 0 mm 2 m/s 704 mmHg 62%
11:00 +28°C° 0 mm 3 m/s 704 mmHg 53%
12:00 +29°C° 0 mm 3 m/s 704 mmHg 44%
13:00 +30°C° 0 mm 3 m/s 704 mmHg 40%
14:00 +32°C° 0 mm 4 m/s 704 mmHg 35%
15:00 +33°C° 0 mm 4 m/s 704 mmHg 31%
16:00 +31°C° 0 mm 3 m/s 704 mmHg 31%
17:00 +30°C° 0 mm 3 m/s 704 mmHg 31%
18:00 +30°C° 0 mm 2 m/s 704 mmHg 31%
19:00 +27°C° 0 mm 2 m/s 704 mmHg 38%
20:00 +25°C° 0 mm 2 m/s 705 mmHg 46%
21:00 +21°C° 0 mm 2 m/s 705 mmHg 53%
22:00 +20°C° 0.1 mm 2 m/s 705 mmHg 60%
23:00 +20°C° 0.1 mm 2 m/s 706 mmHg 66%

8 August, Duminică

Timp Temperatura Precipitaţii Vânt Presiune Umiditate
00:00 +20°C° 0.1 mm 1 m/s 706 mmHg 73%
01:00 +20°C° 0.2 mm 1 m/s 706 mmHg 77%
02:00 +20°C° 0.2 mm 1 m/s 706 mmHg 81%
03:00 +19°C° 0.2 mm 1 m/s 707 mmHg 85%
04:00 +20°C° 0.1 mm 1 m/s 707 mmHg 84%
05:00 +20°C° 0.1 mm 1 m/s 707 mmHg 83%
06:00 +20°C° 0.1 mm 1 m/s 707 mmHg 83%
07:00 +21°C° 0.1 mm 1 m/s 708 mmHg 79%
08:00 +21°C° 0.1 mm 1 m/s 708 mmHg 76%
09:00 +22°C° 0.1 mm 1 m/s 708 mmHg 72%
10:00 +24°C° 0.2 mm 2 m/s 708 mmHg 66%
11:00 +25°C° 0.2 mm 2 m/s 709 mmHg 60%
12:00 +27°C° 0.2 mm 3 m/s 709 mmHg 53%
13:00 +27°C° 0.2 mm 2 m/s 709 mmHg 50%
14:00 +28°C° 0.2 mm 2 m/s 709 mmHg 46%
15:00 +29°C° 0.2 mm 1 m/s 709 mmHg 42%
16:00 +28°C° 0.1 mm 2 m/s 709 mmHg 44%
17:00 +28°C° 0.1 mm 2 m/s 709 mmHg 46%
18:00 +27°C° 0.1 mm 2 m/s 709 mmHg 47%
19:00 +25°C° 0.1 mm 2 m/s 710 mmHg 56%
20:00 +23°C° 0.1 mm 1 m/s 710 mmHg 64%
21:00 +21°C° 0.1 mm 1 m/s 711 mmHg 73%
22:00 +20°C° 0 mm 1 m/s 711 mmHg 73%
23:00 +19°C° 0 mm 2 m/s 711 mmHg 74%
Arată mai mult

Formular de consimțământ

Meteoprog și furnizorii noștri de servicii pot stoca și accesa date personale, precum cookies, identificatori de dispozitiv sau alte tehnologii similare pe dispozitivul dumneavoastră și procesa astfel de date pentru a personaliza conținutul și reclamele, dar și pentru a oferi caracteristici de social media și pentru a analiza traficul.

  • Stocarea și/sau accesarea informațiilor pe dispozitivul dumneavoastră

    Cookies, identificatori de dispozitiv sau alte informații pot fi stocate sau accesate pe dispozitiv în scopurile indicate mai sus.

  • Reclame și conținut personalizat, evaluarea reclamelor și a conținutului, informații despre audiențe și dezvoltarea produselor

    Reclamele și conținutul pot fi personalizate pe baza unui profil. Pot fi adăugate date suplimentare pentru a personaliza mai bine reclamele și conținutul. Performanța reclamelor și conținutului poate fi măsurată. Pot fi obținute informații despre utilizatorii care au văzut reclamele și conținutul. Aceste date pot fi utilizate pentru a dezvolta sau îmbunătăți experiența utilizatorilor, sistemele și software-ul.

Dând clic pe ‘Sunt de acord’, permiteți utilizarea cookie-urilor menționate, a identificatorilor de dispozitiv, balizelor web sau altor tehnologii similare. Setările pot fi modificate din browser-ul dispozitivului dumneavoastră.

În anumite scopuri, interesele legitime pot prima asupra consimțământului. Puteți citi mai multe informații în acest sens în Politica privind Confidențialitatea Datelor și Cookie.